Location: Amsterdam
(30.7274°N, 84.4357°W)
Time: 03:01:33
(UTC+00:00)

Courier 1B Rocket - Pass Details

Date: 15 February 2026
Orbit: 920 x 1201 km, 28.2° (Epoch: 13 March)

Event Time Altitude Azimuth Distance (km) Brightness Sun altitude
Rises 05:01:36 0° 272° (W) 3,693 - -68.5°
Reaches altitude 10° 05:04:12 10° 269° (W) 2,781 - -68.9°
Maximum altitude 05:10:57 66° 189° (S) 1,148 - -69.6°
Drops below altitude 10° 05:18:13 10° 108° (ESE) 2,989 - -70.3°
Sets 05:21:06 0° 106° (ESE) 3,986 - -70.6°
